Weather in Glushkovo

Russia / Vologda Oblast     60°01′44″N   37°55′20″E
temp.,
°C
wind,
m/s
gust,
m/s
humid.,
%
clouds,
%
prec.,
mm/h
press.,
hPa
HPBL,
m
16 may, sun
sun1600:00+14s3995100 0.9 1004216
03:00+12s41195100 0.9 1004274
06:00+13ssw4129490 0.0 1004467
09:00+16ssw587728 0.0 1005732
12:00+19sw586594 0.4 10061452
15:00+18wsw588018 2.8 10071124
18:00+16wsw488882 2.7 1008726
21:00+13wsw38977 3.0 1010219
17 may, mon
mon1700:00+11w289833 0.0 1012254
03:00+10wnw249979 0.0 1014125
06:00+11e019634 0.0 101582
09:00+16se23756 0.0 1017625
12:00+20se235895 0.0 10171316
15:00+20sse2359100 0.0 10161291
18:00+19ese2570100 0.0 1016248
21:00+16ese3108697 0.0 1016238
18 may, tue
tue1800:00+14ese3109393 0.0 1015215
03:00+13ese4129054 0.0 1015310
06:00+15ese4138823 0.5 1014377
09:00+20se510699 0.5 1013520
12:00+25se69515 0.0 10121110
15:00+27sse611455 0.0 10112407
18:00+24se6125032 0.0 10111038
21:00+19se4157142 0.0 1011587
19 may, wed
wed1900:00+18se414807 0.0 1011430
03:00+15se411915 0.0 1011252
06:00+16se413845 0.0 1010387
09:00+23sse5136014 0.0 1010664
12:00+27sse6134311 0.0 10091648
15:00+28sse613425 0.0 10092743
18:00+25sse512495 0.0 10081376
21:00+21se515600 0.0 1008767
20 may, thu
thu2000:00+19se516676 0.0 1008701
03:00+17ese41087100 0.1 1007368
06:00+17se411869 0.0 1007602
09:00+21se47655 0.0 1005917
12:00+22se6107162 1.2 10041516
15:00+21sse6116919 2.8 10031619
18:00+19s510705 0.6 10021274
21:00+15se398271 0.8 1002421